Location: Newark
(30.1000°N, 109.4667°E)
Time: 02:14:05
(UTC+00:00)

Vanguard 2 Rocket - Pass Details

Date: 22 February 2020
Orbit: 554 x 3326 km, 32.9° (Epoch: 06 April)

Event Time Altitude Azimuth Distance (km) Brightness Sun altitude
Rises 14:03:59 0° 264° (W) 7,104 12.1 -45.5°
Reaches altitude 10° 14:09:12 10° 266° (W) 5,841 11.5 -46.5°
Enters shadow 14:23:20 63° 286° (WNW) 2,423 8.9 -49.4°
